K5KVN-2 Weather Reports


time (UTC)temp
F
wind
direction
speed
knots
gust
knots
rain 1hr
in
rain 24hr
in
rain mn
in
humidity
%
barometer
mb
20260507132924 47 133 0.0 0.9 0.00 0.00 0.00 92 1019.6
20260507131924 46 135 0.0 0.9 0.00 0.00 0.00 92 1019.6
20260507130922 46 135 0.0 1.7 0.00 0.00 0.00 93 1019.5
20260507130407 45 73 0.0 1.7 0.00 0.00 0.00 94 1019.4
20260507124921 44 103 0.0 0.9 0.00 0.00 0.00 94 1019.4
20260507123920 43 96 0.0 0.9 0.00 0.00 0.00 94 1019.2
20260507123412 43 350 0.0 0.9 0.00 0.00 0.00 94 1019.0
20260507121921 42 350 0.0 0.9 0.00 0.00 0.00 94 1019.1
20260507120917 41 350 0.0 0.9 0.00 0.00 0.00 95 1019.1
20260507115917 40 320 0.0 0.0 0.00 0.00 0.00 95 1019.1
20260507115356 39 320 0.0 0.0 0.00 0.00 0.00 94 1019.0
20260507113917 39 320 0.0 0.0 0.00 0.00 0.00 93 1018.9
20260507113400 39 320 0.0 0.0 0.00 0.00 0.00 93 1019.1
20260507111916 40 320 0.0 0.0 0.00 0.00 0.00 94 1019.1
20260507110918 40 320 0.0 0.9 0.00 0.00 0.00 94 1018.8
20260507110358 40 320 0.0 0.9 0.00 0.00 0.00 94 1018.6
20260507104917 39 320 0.0 0.0 0.00 0.00 0.00 94 1018.6
20260507103919 39 320 0.0 0.0 0.00 0.00 0.00 94 1018.7
20260507102912 39 320 0.0 0.0 0.00 0.00 0.00 93 1018.6
20260507101911 39 320 0.0 0.0 0.00 0.00 0.00 93 1018.8
20260507100910 39 320 0.0 0.0 0.00 0.00 0.00 93 1018.8
20260507095911 39 320 0.0 0.9 0.00 0.00 0.00 93 1018.9
20260507094910 39 298 0.0 0.0 0.00 0.00 0.00 93 1018.8
20260507093912 40 298 0.0 0.0 0.00 0.00 0.00 93 1018.9
20260507091913 40 298 0.0 0.0 0.00 0.00 0.00 93 1018.7
20260507090911 40 298 0.0 0.9 0.00 0.00 0.00 92 1018.7
20260507085906 40 298 0.0 0.9 0.00 0.00 0.00 92 1018.7
20260507084905 40 298 0.0 1.7 0.00 0.00 0.00 92 1018.7
20260507084357 40 298 0.0 0.9 0.00 0.00 0.00 92 1018.6
20260507082901 40 298 0.0 0.0 0.00 0.00 0.00 92 1018.4
20260507081904 40 298 0.9 2.6 0.00 0.00 0.00 92 1018.4
20260507081350 41 293 0.0 2.6 0.00 0.00 0.00 91 1018.7
20260507075904 41 309 0.0 0.0 0.00 0.00 0.00 90 1018.4
20260507074903 42 310 0.0 0.9 0.00 0.00 0.00 91 1018.3
20260507073906 42 321 0.0 1.7 0.00 0.00 0.00 90 1018.3
20260507072900 42 321 0.0 0.0 0.00 0.00 0.00 90 1018.2
20260507071900 42 321 0.9 1.7 0.00 0.00 0.00 89 1018.4
20260507070857 42 325 0.0 0.0 0.00 0.00 0.00 89 1018.6
20260507065856 43 325 0.0 0.0 0.00 0.00 0.00 88 1018.8
20260507062855 46 293 0.0 0.0 0.00 0.00 0.00 82 1018.6
20260507060854 47 318 0.9 3.5 0.00 0.00 0.00 78 1018.7
20260507055848 47 331 3.5 4.3 0.00 0.00 0.00 78 1018.7
20260507054848 47 333 3.5 4.3 0.00 0.00 0.00 78 1018.7
20260507053848 47 355 2.6 4.3 0.00 0.00 0.00 79 1018.4
20260507052847 47 327 1.7 3.5 0.00 0.00 0.00 79 1018.6
20260507052323 48 325 1.7 2.6 0.00 0.00 0.00 78 1018.6
20260507050848 48 341 0.9 2.6 0.00 0.00 0.00 78 1018.3
20260507045845 48 331 0.9 2.6 0.00 0.00 0.00 79 1018.4
20260507044845 48 338 0.9 1.7 0.00 0.00 0.00 79 1018.3
20260507043844 48 318 0.9 2.6 0.00 0.00 0.00 79 1018.2
20260507043314 48 333 1.7 2.6 0.00 0.00 0.00 78 1018.0
20260507041849 49 329 0.9 2.6 0.00 0.00 0.00 78 1018.1
20260507040842 49 323 1.7 2.6 0.00 0.00 0.00 79 1018.1
20260507040341 49 333 0.9 2.6 0.00 0.00 0.00 79 1018.0
20260507034838 49 329 0.0 1.7 0.00 0.00 0.00 80 1017.9
20260507032836 50 335 1.7 2.6 0.00 0.00 0.00 79 1017.9
20260507031836 50 327 1.7 2.6 0.00 0.00 0.00 79 1017.8
20260507030838 50 327 1.7 2.6 0.00 0.00 0.00 79 1017.6
20260507025835 49 318 0.9 3.5 0.00 0.00 0.00 84 1017.5
20260507025338 49 321 0.0 0.0 0.00 0.00 0.00 85 1017.4
20260507023838 50 321 0.0 2.6 0.00 0.00 0.00 83 1017.3
20260507022834 50 317 0.0 1.7 0.00 0.00 0.00 83 1017.3
20260507021835 51 323 0.9 3.5 0.00 0.00 0.00 83 1017.2
20260507020835 51 313 2.6 3.5 0.00 0.00 0.00 82 1017.1
20260507015835 50 320 0.9 3.5 0.00 0.00 0.00 82 1017.0
20260507014836 51 293 0.0 1.7 0.00 0.00 0.00 81 1017.0
20260507013833 52 293 0.0 0.0 0.00 0.00 0.00 80 1016.9
20260507012836 52 293 0.0 0.9 0.00 0.00 0.00 79 1016.8
20260507011835 53 293 0.0 1.7 0.00 0.00 0.00 78 1016.5
20260507010835 54 293 0.0 1.7 0.00 0.00 0.00 75 1016.6
20260507005836 56 281 0.0 0.0 0.00 0.00 0.00 71 1016.6
20260507004835 57 281 0.0 0.0 0.00 0.02 0.00 71 1016.5
20260507003836 57 219 0.0 0.0 0.00 0.02 0.00 67 1016.4
20260507002832 57 219 0.0 0.0 0.00 0.02 0.00 65 1016.5
20260507001832 57 219 0.0 1.7 0.00 0.02 0.00 64 1016.5
20260507000833 57 48 0.0 2.6 0.00 0.02 0.00 64 1016.3
20260506235831 58 55 0.9 3.5 0.00 0.02 0.00 66 1016.2
20260506233830 58 38 0.9 2.6 0.00 0.02 0.00 64 1016.3
20260506232829 58 327 0.0 3.5 0.00 0.02 0.00 64 1016.3
20260506231832 58 24 0.0 1.7 0.00 0.02 0.00 63 1016.3
20260506230830 58 51 0.9 2.6 0.00 0.02 0.00 63 1016.2
20260506225830 58 74 1.7 5.2 0.00 0.02 0.00 61 1015.9
20260506223827 58 69 2.6 6.1 0.00 0.02 0.00 65 1015.5
20260506222823 58 355 3.5 8.7 0.00 0.02 0.00 65 1015.2
20260506221821 58 15 3.5 10.4 0.00 0.02 0.00 66 1014.8
20260506220816 58 22 3.5 8.7 0.00 0.02 0.00 66 1014.7
20260506215815 58 63 2.6 10.4 0.00 0.02 0.00 64 1015.0
20260506214814 58 28 2.6 8.7 0.00 0.02 0.00 64 1015.1
20260506213809 58 65 1.7 7.0 0.00 0.02 0.00 64 1015.3
20260506212809 58 98 1.7 7.0 0.00 0.02 0.00 65 1015.2
20260506211807 58 355 1.7 7.0 0.00 0.02 0.00 66 1015.4
20260506210809 58 15 2.6 7.8 0.00 0.02 0.00 63 1015.4
20260506205805 57 62 2.6 7.8 0.00 0.02 0.00 64 1015.5
20260506204805 58 52 3.5 8.7 0.00 0.02 0.00 63 1015.7
20260506203805 58 311 2.6 8.7 0.00 0.02 0.00 64 1016.1
20260506202804 58 9 1.7 5.2 0.00 0.02 0.00 64 1016.2
20260506202236 57 115 1.7 7.0 0.00 0.02 0.00 65 1016.3
20260506200803 58 323 2.6 7.0 0.00 0.02 0.00 64 1016.4
20260506200237 58 348 1.7 7.8 0.00 0.02 0.00 65 1016.4
20260506194801 56 59 1.7 8.7 0.00 0.02 0.00 66 1016.8
20260506193803 57 334 2.6 7.8 0.00 0.02 0.00 68 1017.0
20260506192800 57 20 3.5 8.7 0.00 0.02 0.00 65 1016.9
20260506191806 58 14 2.6 7.8 0.00 0.02 0.00 66 1016.8
20260506190803 58 5 2.6 7.8 0.00 0.02 0.00 67 1017.0
20260506185802 57 58 5.2 13.0 0.00 0.02 0.00 65 1017.0
20260506184802 56 51 2.6 9.6 0.00 0.02 0.00 67 1017.0
20260506183757 55 0 5.2 11.3 0.00 0.02 0.00 68 1017.3
20260506182759 55 90 3.5 9.6 0.00 0.02 0.00 66 1017.3
20260506181757 55 100 4.3 12.2 0.00 0.02 0.00 64 1017.5
20260506180753 54 24 4.3 13.0 0.00 0.02 0.00 67 1017.7
20260506175758 55 324 6.1 13.0 0.00 0.02 0.00 70 1017.8
20260506174753 54 349 3.5 8.7 0.00 0.02 0.00 72 1017.9
20260506173751 53 334 2.6 7.8 0.00 0.02 0.00 73 1018.1
20260506172754 53 22 3.5 8.7 0.00 0.02 0.00 74 1018.4
20260506171754 53 316 3.5 9.6 0.00 0.02 0.00 74 1018.6
20260506170747 52 0 3.5 10.4 0.00 0.02 0.00 75 1018.6
20260506165748 52 33 3.5 8.7 0.00 0.02 0.00 74 1017.8
20260506165254 52 18 2.6 7.8 0.00 0.02 0.00 74 1018.0
20260506163749 52 28 3.5 8.7 0.00 0.02 0.00 75 1017.8
20260506162748 52 46 2.6 7.8 0.00 0.02 0.00 76 1017.6
20260506162225 51 42 2.6 7.8 0.00 0.02 0.00 75 1017.3
20260506160746 51 34 2.6 8.7 0.00 0.02 0.00 75 1017.4
20260506155739 52 355 1.7 6.1 0.00 0.02 0.00 75 1017.4
20260506154739 52 60 1.7 8.7 0.00 0.02 0.00 76 1017.0
20260506154216 51 47 2.6 9.6 0.00 0.02 0.00 76 1017.0
20260506152736 51 67 1.7 7.0 0.00 0.02 0.00 78 1016.9
20260506151736 50 115 2.6 8.7 0.00 0.02 0.00 78 1017.3
20260506150732 50 47 1.7 6.1 0.00 0.02 0.00 79 1017.5
20260506145733 50 355 1.7 7.0 0.00 0.02 0.00 79 1017.3
20260506144734 49 10 2.6 9.6 0.00 0.02 0.00 80 1017.1
20260506143736 49 65 3.5 10.4 0.00 0.02 0.00 80 1017.0
20260506142733 49 10 3.5 10.4 0.00 0.02 0.00 80 1016.9
20260506142207 49 89 2.6 9.6 0.00 0.02 0.00 81 1016.7
20260506141223 48 40 2.6 7.8 0.00 0.02 0.00 82 1016.7
20260506135731 48 38 3.5 12.2 0.00 0.02 0.00 83 1016.8
20260506134736 48 41 3.5 9.6 0.00 0.02 0.00 83 1017.2
20260506133731 48 44 1.7 6.1 0.00 0.02 0.00 84 1017.2